Location: Warszawa
(52.2500°N, 21.0000°E)
Time: 09:58:46
(UTC+01:00)

Vanguard 2 - Pass Details

Date: 12 October 2023
Orbit: 552 x 2923 km, 32.9° (Epoch: 07 December)

Event Time Altitude Azimuth Distance (km) Brightness Sun altitude
Rises 20:11:09 0° 269° (W) 6,772 13.6 -22.4°
Reaches altitude 10° 20:17:10 10° 257° (WSW) 5,716 12.7 -23.2°
Maximum altitude 20:28:37 22° 215° (SW) 4,358 11.4 -24.9°
Drops below altitude 10° 20:38:11 10° 171° (S) 4,687 11.2 -26.2°
Enters shadow 20:39:07 - 168° (SSE) 4,802 11.2 -26.4°
